This is the latest recevied weather packets stored in our database for station/object kj4yre. If no packets are shown the sender has not sent any weather packets the latest 10 day(s).
| Time | Temp. | Humidity | Pressure | Rain* | Wind** | Luminosity | Snow |
|---|---|---|---|---|---|---|---|
| 1777732806 | 13.33° C | 68% | 1015.3 hPa | 0 mm | - | - | - |
| 1777732507 | 13.33° C | 69% | 1015.2 hPa | 0 mm | - | - | - |
| 1777732207 | 13.33° C | 67% | 1015 hPa | 0 mm | - | - | - |
| 1777728606 | 12.78° C | 75% | 1014.6 hPa | 0 mm | - | - | - |
| 1777724405 | 11.67° C | 85% | 1014.7 hPa | 0 mm | - | - | - |
| 1777722606 | 11.67° C | 88% | 1014.7 hPa | 0 mm | - | - | - |
| 1777718705 | 10.56° C | 95% | 1014.1 hPa | 0 mm | - | - | - |
| 1777717206 | 10° C | 100% | 1013.2 hPa | 0 mm | - | - | - |
| 1777709706 | 10° C | 100% | 1013 hPa | 0 mm | - | - | - |
| 1777707607 | 10.56° C | 100% | 1012.9 hPa | 0 mm | - | - | - |
| 1777701307 | 11.11° C | 95% | 1013.4 hPa | 0 mm | - | - | - |
| 1777697105 | 12.22° C | 90% | 1014.2 hPa | 0 mm | - | - | - |
| 1777693807 | 12.78° C | 87% | 1014.5 hPa | 0 mm | - | - | - |
| 1777692006 | 12.78° C | 86% | 1014.1 hPa | 0 mm | - | - | - |
| 1777684807 | 11.67° C | 85% | 1013.9 hPa | 0 mm | - | - | - |
| 1777684206 | 12.22° C | 82% | 1013.8 hPa | 0 mm | - | - | - |
| 1777656606 | 20° C | 38% | 1015.6 hPa | 0 mm | - | - | - |
| 1777655705 | 18.33° C | 41% | 1015.6 hPa | 0 mm | - | - | - |
| 1777654206 | 17.22° C | 41% | 1015.8 hPa | 0 mm | - | - | - |
| 1777651806 | 19.44° C | 40% | 1016.3 hPa | 0 mm | - | - | - |
| 1777651206 | 17.78° C | 41% | 1016.5 hPa | 0 mm | - | - | - |
| 1777650005 | 16.67° C | 43% | 1016.8 hPa | 0 mm | - | - | - |
| 1777645206 | 16.11° C | 53% | 1017.2 hPa | 0 mm | - | - | - |
| 1777644006 | 15° C | 51% | 1017.3 hPa | 0 mm | - | - | - |
| 1777638306 | 10.56° C | 83% | 1017.8 hPa | 0 mm | - | - | - |
* Rain latest hour (hover to see other rain measurements)
** Current wind speed in m/s (hover to see current wind gust speed)